Location: Alexandria
(38.8050°N, 77.0470°W)
Time: 15:37:39
(UTC-05:00)

OTV 5 (USA 277) - Pass Details

Date: 14 November 2017
Orbit: 404 x 417 km, 43.0° (Epoch: 07 September)

Event Time Altitude Azimuth Distance (km) Brightness Sun altitude
Exits shadow 05:13:27 38° 356° (N) 636 ? -18.8°
Maximum altitude 05:13:28 38° 357° (N) 636 ? -18.8°
Drops below altitude 10° 05:16:34 10° 67° (ENE) 1,456 ? -18.2°
Sets 05:18:45 0° 76° (ENE) 2,316 ? -17.8°
